Flag for Canada Weather past 2 weeks in Gander, Newfoundland and Labrador, Canada

Now
61 °F

Mostly cloudy.


Feels Like: 61 °F
Forecast: 44 / 63 °F
Wind: 18 mph from West

Location: Gander Int. Airport

Current Time: Sep 5, 2015 at 2:48:36 PM

Latest Report: Sep 5, 2015 at 2:30 PM


Visibility: 20 mi

Pressure: 29.82 "Hg

Humidity: 68%

Dew point: 50 °F

Location of GanderLocation

Historic Weather in Gander — Graph

°F

Gander temperature yesterday

Maximum temperature yesterday: 59 °F (at 12:30 AM)
Minimum temperature yesterday: 45 °F (at 8:30 PM)
Average temperature yesterday: 48 °F

Past Weeks' High & Low Weather Summary

 TemperatureHumidityPressure
High82 °F (Aug 22, 1:30 PM)100% (Aug 23, 2:30 AM)30.25 "Hg (Aug 23, 2:30 AM)
Low43 °F (Sep 2, 6:30 AM)44% (Aug 27, 4:30 PM)29.55 "Hg (Sep 1, 12:30 PM)
Average61 °F84%29.94 "Hg
* Reported Aug 21 1:30 PM — Sep 5 1:30 PM, Gander, Weather by CustomWeather, © 2015

Note: Actual official high and low records may vary slightly from our data, if they occured in-between our weather recording intervals... More about our weather records

Advertising

Gander weather history for previous 24 hours

 ConditionsComfort  
Time TempWeatherWind HumidityBarometerVisibility
1:30 PM
Sat, Sep 5
59 °FOvercast.18 mph72%29.86 "Hg20 mi
12:30 PM57 °FMore clouds than sun.17 mph67%29.90 "Hg20 mi
11:30 AM55 °FPartly sunny.15 mph72%29.95 "Hg20 mi
11:20 AM55 °FPartly sunny.17 mph72%29.95 "Hg20 mi
10:30 AM57 °FPartly sunny.17 mph77%29.96 "Hg20 mi
9:30 AM54 °FPartly sunny.15 mph82%29.99 "Hg20 mi
8:30 AM52 °FScattered clouds.15 mph82%30.00 "Hg20 mi
7:30 AM50 °FBroken clouds.10 mph88%30.01 "Hg20 mi
6:30 AM46 °FPassing clouds.13 mph93%30.03 "Hg20 mi
5:30 AM46 °FPassing clouds.13 mph93%30.02 "Hg15 mi
4:30 AM46 °FPassing clouds.12 mph87%30.03 "Hg15 mi
3:30 AM45 °FPassing clouds.12 mph93%30.05 "Hg15 mi
2:30 AM45 °FPassing clouds.7 mph100%30.06 "Hg15 mi
1:30 AM45 °FPassing clouds.5 mph100%30.07 "Hg15 mi
12:30 AM45 °FPassing clouds.5 mph100%30.08 "Hg15 mi
11:30 PM
Fri, Sep 4
45 °FPassing clouds.7 mph100%30.08 "Hg20 mi
10:30 PM45 °FPassing clouds.10 mph100%30.08 "Hg20 mi
9:30 PM45 °FPassing clouds.8 mph100%30.06 "Hg20 mi
8:30 PM45 °FPassing clouds.8 mph93%30.05 "Hg20 mi
7:30 PM46 °FPassing clouds.12 mph93%30.03 "Hg20 mi
6:30 PM48 °FBroken clouds.15 mph94%30.03 "Hg20 mi
5:30 PM46 °FDrizzle. Fog.14 mph93%30.03 "Hg5 mi
4:30 PM46 °FLight rain. Fog.14 mph100%30.01 "Hg4 mi
3:30 PM48 °FLight rain. Fog.16 mph94%29.98 "Hg3 mi
2:30 PM46 °FLight rain. Fog.18 mph100%29.97 "Hg8 mi
Weather by CustomWeather, © 2015

See weather overviewHow to use our weather pages